Temp
19 19 20 20 20 21 21 21 21 21 21 21 21 21 21 21 21 21 21 21 21 20 21 21 21 21 20 20 20 20 21 22 21 19 22 27 29 28 28 28 29 29 28 28 28 27 27 27 27 28 27 26 26 25 25 24 24 25 26 26 24 24 25 26 26 26 26 28 28 29 30 30 30 30 31 30 30 30 29 29 29 29 29 28 27 26 26 26
19 19 20 20 20 21 21 21 21 21 21 21 21 21 21 21 21 21 21 21 21 21 21 21 21 21 21 21 20 20 21 21 19 19 24 29 28 28 28 28 28 29 29 28 28 27 27 27 27 28 27 26 26 25 25 24 25 26 26 25 25 26 26 27 27 26 27 28 29 29 30 30 30 30 31 30 29 29 29 28 28 28 28 28 26 26 26 25
20 20 20 20 21 21 21 21 21 21 21 21 21 21 21 21 21 21 21 21 21 21 21 21 21 21 21 21 20 20 19 19 21 24 28 30 28 29 28 27 28 28 28 28 29 28 28 28 28 28 27 26 26 25 25 25 25 26 26 26 26 27 27 27 27 27 27 28 29 29 29 30 30 30 31 29 28 29 28 28 28 27 28 27 26 26 26 26
20 20 20 21 21 21 21 22 22 22 22 21 21 21 21 21 21 21 21 21 21 21 21 21 21 21 21 20 20 20 18 20 27 29 29 29 29 29 28 27 27 28 28 28 29 28 28 28 29 29 28 27 26 26 26 25 26 27 26 27 26 26 27 27 26 26 27 28 29 30 29 30 30 30 30 29 28 27 28 28 28 28 28 27 26 26 26 26
20 20 21 21 21 22 22 22 22 22 22 22 22 21 21 21 21 21 21 21 21 21 21 21 21 21 21 21 21 19 19 25 29 29 29 30 29 29 28 27 27 28 28 28 29 28 28 28 28 28 28 27 26 26 27 26 27 27 26 26 27 26 27 28 27 27 28 29 29 29 29 30 31 30 30 29 28 27 28 29 29 29 28 28 27 27 27 27
20 21 21 22 22 22 22 22 22 22 22 22 22 22 21 21 21 21 21 21 21 21 21 22 21 21 21 21 21 19 22 27 28 29 30 30 30 29 27 27 27 28 28 28 28 28 28 28 28 29 29 28 27 28 27 27 27 28 27 26 27 27 27 27 27 27 28 29 29 29 29 30 30 30 30 29 29 29 29 29 29 29 29 29 28 28 28 27
21 21 22 22 22 22 22 22 22 22 22 22 22 22 22 21 21 21 21 21 21 22 22 22 21 21 21 21 20 20 23 27 29 30 30 30 30 29 28 28 28 28 28 28 27 28 28 28 29 29 30 29 27 28 28 27 28 28 27 26 27 27 26 26 27 27 28 29 28 28 29 30 30 30 30 30 29 29 30 30 29 29 29 29 29 28 28 28
21 21 22 22 23 23 23 23 23 23 23 22 22 22 22 21 21 21 21 21 21 22 22 22 21 21 21 21 21 23 25 28 29 30 30 30 29 29 29 28 28 28 28 27 28 28 28 28 29 30 30 30 29 28 28 28 27 28 27 26 26 26 25 25 27 26 27 27 27 28 29 30 30 30 31 30 29 30 30 30 30 30 29 29 29 29 29 28
21 21 22 22 23 23 23 23 23 23 23 23 22 22 22 22 21 21 21 21 22 22 22 22 21 21 21 20 21 26 28 29 30 30 30 30 29 29 29 28 28 28 28 28 28 28 28 29 30 31 31 31 30 28 28 28 27 28 27 26 26 25 24 25 27 26 26 27 27 29 30 29 30 30 31 30 29 30 30 30 30 30 29 29 29 29 29 29
21 22 22 23 23 23 23 23 23 23 23 23 22 22 22 22 21 21 21 22 22 22 22 21 21 21 20 19 22 27 30 30 30 30 30 30 29 29 29 29 29 28 28 29 28 28 28 29 31 32 32 31 30 29 29 29 28 28 26 25 25 24 24 25 26 26 25 25 26 28 29 28 29 30 30 30 30 30 30 30 30 30 29 29 30 29 29 29
21 22 22 23 23 23 23 23 23 24 24 24 23 22 23 22 22 21 21 22 22 22 22 21 21 20 19 20 24 28 30 30 30 30 30 30 29 29 29 29 29 29 29 29 29 29 29 30 31 32 32 31 30 29 28 29 28 26 25 25 24 24 25 24 25 25 24 24 23 26 28 28 29 30 30 30 30 30 30 30 30 30 30 30 30 29 29 28
21 22 22 23 23 23 23 24 24 24 24 24 24 23 23 23 22 22 22 22 21 21 21 21 21 20 19 21 25 28 30 30 30 30 30 30 30 30 30 30 30 30 30 29 29 31 31 32 32 32 32 32 29 28 28 28 27 25 26 26 24 25 26 24 24 24 24 23 23 25 27 27 29 30 30 30 30 31 30 30 30 30 30 30 30 29 28 28
21 21 22 23 23 23 24 24 24 24 24 24 24 23 23 23 22 22 22 22 21 21 21 20 20 19 20 24 28 30 31 30 30 30 30 31 31 30 30 30 30 30 30 29 30 32 33 32 32 32 32 32 29 29 29 28 27 26 26 26 25 25 25 24 23 24 24 23 23 25 24 25 28 29 30 30 30 30 30 30 30 29 30 30 30 29 28 27
21 22 22 23 23 23 24 24 24 24 24 25 25 24 23 23 23 22 22 22 21 21 21 20 20 19 21 27 30 30 31 30 30 30 30 30 30 30 31 31 30 30 30 30 31 32 33 33 32 32 33 32 29 29 28 27 27 27 26 25 25 24 24 24 23 24 25 22 23 25 23 24 28 29 30 30 30 30 30 30 30 29 30 29 29 29 28 27
21 22 22 23 23 23 24 24 24 25 25 25 25 24 24 24 23 22 21 21 21 21 21 20 20 19 22 27 30 31 31 31 31 30 31 31 30 30 30 31 31 31 31 32 32 32 33 33 32 32 32 32 30 28 28 27 26 26 24 24 24 23 23 24 23 23 24 22 23 25 24 25 27 28 29 29 30 30 30 29 30 30 29 29 29 29 28 28
21 21 22 23 23 24 24 24 25 25 25 26 26 25 25 24 23 22 21 21 21 21 20 20 20 20 24 28 30 30 31 31 31 31 31 31 30 31 31 31 31 31 32 32 32 33 33 32 32 32 32 32 31 29 27 25 25 26 25 23 23 23 23 23 23 22 23 23 23 24 24 25 27 28 28 29 30 30 30 29 30 30 29 29 29 29 29 28
21 21 22 23 23 24 24 24 25 25 26 26 26 26 26 24 23 21 21 20 20 21 20 20 20 20 25 29 29 30 31 31 32 32 32 31 31 32 32 31 31 31 31 32 32 32 32 32 31 31 31 31 30 29 25 22 23 24 25 24 24 24 23 23 23 22 23 23 23 24 25 26 27 27 28 29 30 30 30 30 30 30 29 29 29 29 29 28
21 21 22 23 23 24 24 24 25 26 26 26 27 27 26 24 22 21 21 20 19 20 20 20 20 22 26 29 29 30 31 31 32 32 32 32 32 32 32 32 31 31 31 31 31 31 31 31 31 30 30 30 30 29 24 22 23 24 24 23 23 24 24 24 23 23 23 23 24 24 25 26 26 27 28 29 29 30 30 29 29 30 29 29 29 29 29 29
21 21 22 23 23 24 24 24 25 26 26 27 27 27 26 24 22 22 20 20 22 24 25 24 24 27 28 29 30 31 32 32 32 32 32 32 32 32 32 32 32 31 30 30 30 30 31 30 30 28 28 29 30 29 27 27 28 26 26 25 24 23 23 24 24 23 24 23 24 24 24 25 25 26 27 28 29 30 29 29 29 29 29 29 29 29 29 29
21 21 22 23 23 24 24 24 25 26 26 27 27 26 26 25 25 25 22 22 24 27 29 27 26 29 29 30 31 31 32 32 32 32 32 33 32 32 32 32 31 31 30 30 30 30 30 29 28 28 28 29 30 30 30 30 29 28 27 26 25 23 23 24 23 23 24 24 23 24 24 25 25 25 26 26 28 29 29 29 29 29 29 29 29 29 29 29
21 21 22 23 24 24 24 25 25 26 27 27 26 26 26 26 27 28 27 27 27 26 28 28 27 28 29 30 31 32 32 32 32 32 32 33 32 31 31 31 30 30 30 30 30 30 30 28 27 29 29 30 30 31 30 29 29 28 27 25 24 23 23 23 23 22 24 24 23 24 24 25 25 25 25 25 27 28 28 28 29 29 29 28 29 29 29 29
21 21 22 23 24 25 25 25 25 26 27 26 25 25 25 27 28 29 29 29 29 28 28 28 28 28 29 30 32 33 32 31 31 31 32 32 31 31 31 31 30 30 30 30 30 29 28 27 29 30 30 30 31 31 30 29 28 27 26 24 23 22 23 23 22 22 23 24 23 23 24 24 25 25 25 25 26 26 27 28 28 29 29 28 28 29 29 29
21 22 22 23 24 25 25 25 26 26 27 26 25 24 26 29 30 29 29 28 28 30 29 29 29 29 29 30 33 33 32 32 31 31 32 32 31 31 31 30 30 30 30 30 29 27 25 28 30 31 30 31 31 30 30 29 28 27 25 24 23 23 23 22 22 23 23 23 23 24 24 25 25 25 26 26 26 26 26 27 27 28 28 29 29 28 29 29
21 22 22 23 24 25 26 26 26 26 26 26 26 27 29 30 29 29 29 28 28 29 30 31 31 31 31 32 33 33 32 32 32 32 32 32 32 31 31 31 30 29 30 30 30 28 27 30 32 31 30 31 31 30 30 28 26 26 27 25 24 23 24 23 23 23 23 23 24 24 23 23 25 26 26 27 26 26 26 26 27 27 28 28 29 29 29 29
22 22 22 23 24 25 26 26 27 27 26 27 28 29 29 29 30 29 29 27 27 29 31 31 32 32 33 33 33 33 32 32 32 32 32 32 32 31 31 32 31 30 30 31 30 29 30 32 32 32 32 31 31 30 29 28 26 25 27 28 26 25 25 23 23 23 22 21 23 24 21 21 24 25 26 26 26 26 26 26 27 28 27 28 28 29 28 29
22 22 23 23 23 25 26 27 26 26 26 28 29 29 29 29 29 29 29 26 24 28 31 31 31 33 33 32 32 33 31 31 33 33 33 33 33 33 32 31 31 31 31 32 31 31 32 33 33 33 33 32 32 30 30 30 26 24 27 29 27 26 24 23 23 23 21 21 23 24 22 21 22 24 25 25 26 26 26 26 27 27 28 28 29 29 28 29
22 22 23 23 23 24 25 27 25 25 27 28 28 28 29 30 29 29 28 23 22 29 31 30 31 33 33 33 33 32 29 30 33 33 33 34 33 33 32 31 31 31 32 32 28 30 33 34 33 33 33 33 32 31 31 31 27 25 28 29 27 26 24 23 24 23 22 22 23 23 23 21 21 23 25 25 25 26 26 26 26 27 27 27 28 28 28 29
22 23 23 23 24 23 23 24 23 24 27 28 28 28 29 29 29 29 25 20 24 31 31 31 32 32 33 33 33 32 31 31 32 32 34 34 33 33 31 31 31 31 32 30 25 29 33 33 33 33 33 32 32 33 33 32 29 28 29 28 27 26 25 25 24 23 23 22 21 22 23 21 21 23 25 25 24 25 25 26 26 26 27 27 28 28 29 29
23 23 23 23 24 24 23 22 22 24 27 28 28 28 29 29 28 28 24 21 27 32 32 31 32 32 33 32 32 32 32 32 32 32 33 33 33 33 32 32 32 31 32 30 28 30 33 33 33 33 33 32 33 34 34 33 32 30 30 28 27 27 26 25 24 22 22 22 21 21 22 21 21 22 23 23 23 24 25 26 26 27 26 26 26 27 29 29
23 23 23 23 23 23 22 22 24 27 28 28 28 29 29 28 27 25 21 23 28 31 31 31 31 32 32 31 31 32 32 32 32 33 32 32 33 33 32 32 32 31 31 31 31 31 32 33 34 34 34 34 34 34 33 33 33 31 29 28 27 27 26 25 24 23 22 21 21 21 22 22 21 22 23 23 24 25 26 26 26 26 26 25 25 26 28 29
24 24 23 23 23 22 21 23 26 28 27 27 28 29 29 28 26 22 21 27 29 29 31 30 31 33 32 31 31 32 32 32 32 32 31 32 32 32 32 31 31 30 29 29 30 32 32 32 33 34 34 34 34 34 33 34 32 30 29 27 25 24 24 24 23 23 21 21 22 22 23 22 21 22 24 24 24 25 26 26 26 26 26 25 26 26 27 28
24 24 24 24 24 23 23 25 27 27 27 27 28 28 28 26 23 21 24 28 27 28 31 31 31 32 32 31 31 31 32 32 32 32 31 31 31 31 31 30 30 27 24 25 28 29 31 32 33 34 35 35 34 32 32 33 32 30 27 25 23 21 22 22 21 21 21 21 22 23 23 22 21 23 25 25 25 25 25 25 26 26 25 25 25 24 25 26
24 24 25 25 24 25 25 26 26 26 27 27 27 28 27 23 22 23 25 26 26 29 32 32 32 32 31 31 31 32 32 32 32 32 32 32 31 30 30 31 31 28 25 25 25 25 26 30 32 33 33 34 34 31 28 29 31 29 26 23 22 21 21 21 21 21 21 21 22 23 23 21 21 23 25 25 25 24 25 25 25 25 25 26 26 25 25 25
24 25 25 25 26 27 27 27 26 26 26 27 27 27 25 21 22 25 26 27 29 32 33 33 33 32 32 32 32 33 31 31 32 32 31 31 29 29 30 30 31 31 29 27 25 24 23 25 29 32 32 33 34 32 30 31 31 31 30 28 24 22 22 21 21 21 21 21 22 23 22 21 21 23 24 24 24 24 24 24 24 24 25 26 26 26 26 25
24 25 24 25 26 28 28 27 26 26 25 27 27 25 22 21 23 25 26 29 31 32 33 34 34 32 31 32 33 33 32 30 32 32 31 31 29 29 31 31 31 32 30 26 25 26 23 23 30 33 33 33 33 33 34 33 30 30 32 28 25 26 25 22 22 22 21 21 21 21 22 22 23 24 24 24 24 24 23 23 24 24 24 25 26 26 25 25
24 25 25 25 26 28 28 27 26 25 25 27 26 23 22 23 25 27 28 30 30 31 31 31 32 30 27 30 32 33 33 32 32 31 30 31 31 31 32 32 32 33 32 28 26 27 23 24 32 34 32 34 33 33 35 32 29 30 29 26 28 31 29 23 21 22 22 21 21 21 22 23 23 23 24 24 24 24 24 24 24 24 24 24 25 25 24 24
23 23 22 23 26 28 28 27 26 25 26 27 25 23 25 27 28 28 30 30 30 31 30 27 29 29 25 26 30 32 33 32 32 30 29 30 30 31 33 33 33 33 33 31 29 29 26 25 31 33 32 33 34 33 34 33 31 29 26 28 31 31 29 25 22 21 21 21 21 21 21 22 21 22 24 24 24 24 24 24 24 24 24 24 24 24 23 23
20 19 20 24 27 28 27 27 27 25 26 27 24 24 26 27 29 29 30 30 30 31 30 27 28 30 27 25 27 32 32 29 30 30 28 29 29 31 33 33 33 33 33 33 30 31 29 24 28 32 31 32 34 33 31 32 33 30 28 31 30 25 24 24 22 22 21 21 21 21 21 21 21 22 23 24 24 24 24 24 24 24 24 24 23 23 23 23
19 19 23 28 29 29 27 27 26 26 26 26 24 25 26 27 29 29 30 30 30 30 29 29 30 30 29 28 28 31 31 29 30 29 27 28 28 31 33 33 33 32 33 34 31 31 31 25 25 31 32 31 32 30 26 27 31 31 30 32 30 26 24 24 23 23 22 21 21 21 21 21 22 24 25 25 25 24 23 23 23 23 24 24 23 23 23 23
18 20 25 28 28 28 28 27 26 26 26 25 25 26 27 27 28 30 30 30 30 30 31 31 31 30 30 31 30 31 31 31 31 30 29 29 29 30 33 33 33 32 31 32 31 30 31 26 23 28 31 29 28 28 27 27 29 29 27 27 27 27 26 25 24 23 22 21 21 21 21 21 23 25 25 25 24 24 23 23 23 23 23 23 23 23 23 23
16 21 25 27 27 27 27 26 26 26 25 25 26 26 27 28 28 29 30 30 30 31 32 32 32 31 31 31 31 31 32 32 32 31 30 30 29 29 32 33 33 32 31 31 31 30 30 27 24 25 26 25 26 29 30 30 30 29 27 26 26 26 25 23 23 23 23 22 21 21 21 22 24 25 24 24 23 23 23 23 22 23 23 23 22 23 23 22
17 22 25 28 27 26 26 26 26 26 26 26 27 27 27 28 29 29 30 30 30 31 32 32 32 32 32 31 32 32 31 31 31 30 30 31 31 31 32 33 32 32 31 30 30 30 30 29 25 23 25 26 28 30 30 30 31 30 29 29 28 27 24 22 21 22 22 22 22 22 21 22 24 24 23 23 22 23 23 22 22 22 22 22 22 22 22 22
18 20 24 27 27 26 26 26 26 26 26 27 28 28 28 28 28 29 29 30 30 31 32 32 32 32 32 32 32 32 31 30 30 31 31 31 32 32 32 33 32 32 32 30 30 30 30 28 24 23 25 28 29 30 30 31 31 29 29 30 29 28 27 25 24 24 22 22 22 21 21 23 24 23 23 22 21 22 22 22 22 22 22 22 22 22 22 22
15 16 20 25 27 26 26 25 26 26 26 27 28 28 28 29 29 29 29 30 31 32 32 32 33 32 32 32 32 32 31 29 29 32 32 32 32 32 32 34 33 32 31 31 31 30 28 26 24 22 23 24 26 27 27 28 29 28 28 30 29 29 29 27 25 24 23 22 22 22 21 22 23 23 23 22 21 21 21 21 21 21 22 22 22 22 22 21
15 17 19 23 26 26 26 26 26 26 26 27 27 27 28 29 30 30 30 30 31 31 32 32 33 32 32 32 32 33 32 30 29 31 32 32 32 32 32 34 34 33 32 31 32 31 28 27 26 22 21 21 22 22 24 25 27 27 28 29 29 29 28 26 24 23 22 21 22 22 21 21 23 23 23 22 22 21 21 21 21 21 22 21 21 21 21 22
18 20 21 22 24 24 24 25 25 25 25 25 25 27 28 28 30 31 31 30 31 32 32 33 33 32 32 32 32 32 32 32 31 31 32 32 32 32 32 33 33 32 32 32 32 32 29 28 27 25 23 23 23 24 26 27 26 25 26 28 28 28 28 26 23 22 22 22 22 22 22 21 22 23 23 22 21 21 21 21 21 21 22 21 21 21 21 22
17 20 21 21 21 22 23 23 23 23 24 24 25 26 28 28 29 30 31 31 31 32 32 32 33 32 31 32 32 31 31 32 31 31 32 32 32 32 32 31 32 32 32 32 32 32 29 26 27 27 26 26 27 27 29 28 26 25 26 26 27 28 28 26 23 23 23 22 21 22 22 22 22 23 23 21 21 21 21 21 21 21 22 21 21 21 21 21
18 20 21 20 20 21 21 22 22 22 23 24 25 26 27 28 28 29 30 31 31 32 32 31 32 32 31 32 31 30 30 30 30 31 32 31 32 32 31 31 31 31 32 32 31 32 29 26 27 27 27 28 29 29 29 29 28 28 27 27 27 27 27 25 24 25 25 23 22 23 23 22 23 23 22 20 21 20 20 20 20 21 21 21 21 21 21 21
18 19 19 19 20 20 20 21 22 22 23 24 24 26 26 27 28 28 29 30 30 31 31 31 31 32 32 32 31 30 30 28 28 30 32 31 31 31 30 30 31 31 31 31 31 31 29 26 28 28 26 28 29 29 29 29 28 27 27 28 28 27 26 25 24 25 25 24 23 23 23 22 22 22 21 20 20 20 20 20 20 21 21 22 21 21 21 21
17 17 17 17 18 19 19 21 22 22 23 23 24 26 26 27 28 28 29 29 29 29 31 30 30 31 32 32 32 31 31 30 29 31 32 31 31 31 31 30 30 31 31 31 30 30 28 26 28 28 25 25 28 29 29 29 27 26 27 28 28 26 25 25 24 24 24 23 22 22 22 22 22 21 20 20 20 20 20 20 20 20 21 21 21 21 21 20
15 16 16 16 17 19 20 21 22 21 22 23 25 25 26 26 27 27 28 29 29 29 30 29 29 29 30 31 32 32 32 32 31 31 32 31 31 31 31 31 31 31 31 31 30 30 29 27 27 27 23 23 26 28 27 28 27 25 25 27 27 25 25 25 25 25 25 23 22 21 22 23 22 20 19 19 20 20 20 20 20 20 20 21 21 21 20 20
14 15 16 16 17 19 20 20 21 21 22 24 24 24 25 25 26 26 26 28 28 28 29 30 29 29 29 29 30 31 32 32 32 32 32 32 32 32 32 31 32 31 31 31 30 30 30 28 26 25 22 22 25 27 26 26 24 22 24 26 27 26 25 25 25 26 26 24 23 22 23 24 22 20 19 20 19 19 20 20 20 20 20 20 20 21 21 20
Height
807 806 805 804 803 803 802 800 800 798 798 797 796 795 794 793 792 792 791 790 790 789 788 788 787 787 787 786 785 783 782 780 779 779 778 773 771 773 774 775 775 775 776 777 778 779 780 782 782 782 785 787 788 790 791 791 790 795 807 815 818 821 818 813 813 811 808 805 801 796 791 795 798 791 783 784 789 793 797 797 795 795 794 796 800 805 808 812
807 806 805 804 803 802 801 800 799 798 797 796 795 794 793 792 791 790 790 789 789 788 788 787 787 787 786 786 784 782 781 779 779 777 773 770 771 772 773 774 775 775 775 776 777 778 780 782 781 782 786 790 791 791 794 792 792 799 808 815 815 814 810 803 804 804 802 800 798 794 792 793 795 792 785 793 801 796 802 805 800 802 801 801 803 807 810 812
807 806 805 804 803 802 801 800 799 798 796 796 794 793 792 791 790 789 788 788 787 787 787 786 787 786 785 785 783 782 781 779 778 774 769 768 770 770 771 773 774 774 775 776 776 777 778 779 780 783 788 793 792 792 796 794 794 798 804 815 813 805 803 799 800 800 797 795 796 795 792 792 791 788 788 798 804 801 805 806 805 808 806 805 806 807 810 812
807 806 805 804 803 802 801 800 798 797 796 795 794 793 792 790 789 788 787 787 786 786 786 786 786 785 785 784 783 782 780 781 778 770 767 768 769 769 770 772 772 774 774 775 776 776 777 778 780 782 788 795 794 792 796 795 795 797 802 812 807 800 802 799 797 797 794 794 794 794 795 795 789 786 791 798 807 810 806 801 801 804 804 805 807 807 810 811
807 806 805 804 803 802 800 799 798 797 796 794 793 792 790 789 788 787 786 786 785 785 785 785 785 784 784 783 783 781 781 789 780 766 767 768 767 769 769 770 772 773 773 774 775 775 776 778 781 784 788 795 797 795 796 791 790 798 802 803 799 798 802 796 793 794 791 791 792 794 797 794 787 789 793 796 807 810 801 797 796 797 799 802 804 806 808 809
807 806 805 803 802 801 800 799 798 796 795 794 793 791 790 789 788 787 786 785 785 784 784 784 784 784 783 782 782 779 783 790 775 765 768 766 767 767 768 770 771 772 772 773 773 774 777 778 783 788 789 793 796 795 795 789 787 799 802 797 795 796 799 795 790 792 789 791 795 795 793 788 791 795 792 793 800 798 791 791 793 794 796 799 802 804 805 807
807 805 804 803 802 801 799 798 797 796 795 794 792 791 789 788 787 787 785 785 784 783 783 783 783 783 782 781 781 780 782 780 767 765 767 764 767 766 767 769 769 772 771 772 773 775 777 779 784 786 788 793 795 793 792 788 787 797 803 798 794 793 796 794 791 792 790 792 794 791 790 790 796 797 792 793 793 790 788 788 790 793 795 798 801 802 804 805
806 805 804 803 801 800 799 798 796 795 794 793 792 790 789 788 787 786 785 785 783 783 783 783 783 782 782 781 780 782 781 773 765 766 766 764 766 765 767 768 769 771 769 771 772 773 777 780 782 781 788 790 787 791 790 791 794 797 801 799 794 794 796 793 791 792 791 792 791 790 793 793 792 791 792 794 791 788 788 788 790 793 796 799 800 802 803 804
806 805 803 803 801 800 799 797 796 795 794 793 792 790 789 788 786 786 784 784 783 783 782 782 783 782 782 780 780 784 777 767 765 766 765 765 765 765 767 767 768 769 769 771 770 772 777 779 777 776 784 784 781 788 787 794 800 794 796 797 795 799 798 794 793 793 793 793 792 793 797 795 788 789 795 794 790 788 788 791 792 794 798 800 801 801 802 803
806 804 803 802 800 800 798 797 795 794 793 793 791 790 789 787 786 785 784 783 783 783 782 783 782 781 782 779 782 785 772 763 765 765 764 765 765 766 767 766 768 768 768 769 768 771 774 774 772 768 775 779 780 786 786 792 793 788 794 796 798 801 797 796 797 796 796 797 796 798 801 798 789 793 803 796 788 788 790 794 793 795 799 800 800 800 801 803
806 804 803 802 800 799 797 796 795 793 792 791 791 789 788 787 786 785 784 783 783 782 782 782 781 782 781 780 785 782 767 763 766 764 765 765 765 766 766 766 767 767 768 768 768 769 769 769 767 767 775 779 782 788 788 785 786 789 794 799 803 803 799 799 801 799 801 806 804 801 802 800 793 798 802 794 788 788 792 796 795 797 799 799 800 800 800 802
806 804 803 801 800 798 796 795 793 792 791 790 790 789 787 786 785 785 784 783 783 783 782 782 782 781 780 782 783 773 763 764 765 764 765 764 765 766 765 767 766 766 767 767 768 766 767 766 764 773 777 777 786 794 790 782 786 793 793 802 807 803 802 802 803 803 804 811 806 802 810 810 804 801 796 791 789 789 793 796 797 798 799 799 800 800 801 802
806 804 803 801 799 797 796 794 792 792 790 789 789 788 787 785 784 784 783 783 783 782 782 782 782 781 782 782 773 765 763 765 765 764 765 764 765 765 765 766 765 765 766 765 766 765 765 764 765 772 771 776 789 788 783 783 789 796 797 804 810 810 810 805 804 805 805 810 802 804 824 823 809 801 793 790 790 791 796 798 799 800 799 799 800 801 803 803
805 804 802 800 799 797 795 793 792 790 789 788 787 787 786 784 784 783 783 783 782 783 782 782 782 781 783 778 765 763 764 764 765 764 764 764 764 765 765 765 765 765 765 765 765 764 764 763 763 768 768 774 782 780 785 793 795 801 804 806 813 818 816 808 805 809 811 811 802 808 828 824 809 801 793 790 791 793 799 799 799 801 800 801 801 802 804 803
805 803 801 800 798 796 794 792 790 789 787 786 785 785 784 782 783 782 782 783 782 783 782 782 782 781 783 776 763 762 764 763 764 763 763 764 763 764 764 764 765 764 764 764 764 764 763 762 765 772 773 770 777 788 798 802 801 806 811 814 818 819 818 812 808 812 816 814 807 813 827 823 810 802 794 791 792 794 799 800 799 801 801 802 802 803 805 805
805 803 801 799 797 795 793 791 789 787 786 784 784 783 782 781 781 781 782 781 782 783 782 783 782 782 786 777 764 762 763 762 762 761 762 762 762 763 762 762 763 763 764 763 762 763 762 764 768 772 774 776 784 796 805 810 809 808 811 817 818 817 820 819 814 812 813 814 813 815 822 822 811 801 795 792 792 795 799 801 800 801 802 802 803 803 804 806
804 802 800 798 796 795 792 790 788 786 784 784 782 781 780 778 779 780 780 780 782 781 781 783 781 784 782 770 766 766 761 760 760 760 760 760 761 761 760 761 762 762 763 762 763 763 764 768 772 774 777 782 787 795 812 824 819 812 811 814 813 813 819 820 820 815 809 814 818 815 817 817 809 802 798 794 792 796 800 802 801 801 802 802 803 803 804 806
804 802 800 798 796 794 791 789 787 785 784 783 781 780 778 777 778 779 779 780 781 781 784 783 782 790 785 769 767 765 757 758 759 758 759 759 760 760 760 760 760 762 766 768 768 768 771 772 776 784 786 787 789 796 813 820 814 811 810 812 812 812 815 816 818 815 810 815 818 818 820 816 809 804 800 796 794 797 800 802 802 801 802 802 803 804 804 806
803 801 799 797 795 793 791 789 787 785 783 781 781 779 776 776 777 778 779 780 782 783 785 783 781 788 784 768 761 758 755 756 757 757 758 758 759 759 758 759 760 765 774 780 778 773 776 780 785 793 794 792 791 793 800 799 797 801 802 804 808 813 816 813 813 812 808 816 820 821 823 819 815 809 803 801 796 797 802 802 802 803 803 803 803 804 804 805
802 800 798 796 794 792 790 788 786 784 782 781 779 778 779 782 784 783 780 779 778 776 775 774 773 774 772 763 757 756 756 756 756 756 757 757 757 759 760 761 764 770 777 783 783 775 776 790 795 793 790 789 787 784 785 787 788 794 797 801 806 814 818 813 814 812 805 816 823 821 821 819 815 811 807 806 801 800 803 804 804 805 805 805 803 804 804 804
802 800 797 795 793 791 789 787 786 784 782 781 779 780 784 786 791 789 781 775 768 764 767 765 764 767 764 758 755 754 757 759 757 755 757 756 756 764 767 766 775 782 779 778 780 775 779 795 795 784 782 781 780 779 780 785 788 791 797 805 812 818 819 814 815 813 806 815 823 820 822 820 814 811 809 808 807 805 804 804 805 805 806 807 804 803 803 803
801 799 796 794 792 790 788 786 785 783 782 781 780 782 782 780 782 780 778 780 768 758 762 760 760 764 757 754 754 751 758 765 763 757 755 756 759 769 771 770 781 785 777 777 783 786 791 795 785 774 776 777 777 776 777 784 789 794 801 807 816 818 816 816 816 812 808 815 823 821 822 821 815 810 808 808 808 807 804 802 803 803 805 808 806 803 803 803
801 797 795 793 790 789 787 785 784 783 782 781 780 780 778 775 775 773 775 784 776 760 758 759 760 762 758 755 751 751 761 767 769 762 753 757 763 766 771 776 781 782 780 783 787 795 799 788 772 767 772 777 780 778 779 787 791 797 802 805 813 815 813 818 820 816 812 815 821 821 821 820 816 812 808 805 805 806 805 802 801 802 802 803 803 802 801 803
800 797 795 791 789 788 785 784 783 782 782 780 780 778 775 774 774 773 774 782 782 764 754 752 753 755 756 752 748 752 762 761 762 761 752 757 763 763 769 774 779 783 782 780 783 791 791 772 760 764 770 775 781 781 783 793 798 798 797 798 808 811 809 814 819 817 815 818 817 818 828 827 817 817 812 805 805 805 804 803 802 802 800 799 799 800 799 799
799 797 794 790 789 786 784 783 781 782 781 779 779 776 776 775 772 772 776 787 789 769 754 750 749 751 747 746 748 750 757 758 755 753 748 751 758 763 768 767 774 784 779 776 781 787 781 763 757 766 770 771 778 784 784 788 796 798 793 790 796 802 806 813 817 818 826 831 818 817 840 840 819 818 817 809 808 807 804 805 804 802 800 800 800 800 799 798
798 796 793 791 788 784 783 781 780 782 780 778 777 776 775 774 773 772 778 798 800 776 762 758 755 753 746 748 749 748 764 765 749 745 746 747 749 756 769 768 769 777 773 770 775 777 769 757 757 765 767 768 774 780 779 778 792 799 788 782 789 796 806 814 816 820 832 833 818 813 835 843 828 821 816 810 811 808 805 805 803 802 800 800 799 798 799 798
798 795 792 790 787 785 783 781 782 782 780 779 775 775 774 771 772 770 783 816 811 775 765 764 757 753 748 747 745 755 779 770 750 747 744 746 746 749 767 773 771 772 764 769 781 774 762 758 760 762 764 768 772 775 773 772 788 796 782 779 790 796 805 812 812 818 824 824 822 818 824 838 836 822 811 810 814 812 808 806 803 801 800 799 798 796 797 797
796 793 791 789 787 786 784 782 782 779 779 779 773 774 773 770 772 771 797 831 807 765 762 761 751 747 744 744 745 757 768 760 762 760 740 742 748 750 768 772 770 772 762 774 791 774 759 763 764 762 766 770 769 766 763 767 780 783 774 778 787 792 800 805 808 817 819 822 834 830 824 838 839 817 807 811 816 816 810 805 803 800 799 798 797 795 794 794
795 792 789 787 786 784 782 782 780 777 778 776 774 775 771 770 772 779 810 826 790 760 759 756 751 749 747 751 753 756 755 755 765 757 739 745 747 749 765 764 763 771 763 770 783 771 759 758 756 760 767 768 763 758 756 763 772 771 771 780 787 793 799 804 811 819 820 824 835 832 825 836 837 819 814 818 817 815 808 803 800 798 797 798 798 796 794 793
793 791 788 785 783 782 781 779 776 776 777 774 775 772 769 773 780 802 829 814 779 764 759 756 758 754 754 762 763 759 758 759 757 751 749 751 747 747 755 753 757 768 767 767 771 766 756 749 748 754 758 757 755 755 755 758 762 767 778 789 796 800 802 807 812 816 827 833 829 825 821 828 834 823 816 817 811 805 803 801 799 796 798 800 799 796 794 792
790 788 786 782 781 780 780 777 773 774 775 774 774 770 772 781 792 822 829 791 771 771 762 762 763 755 758 768 768 763 762 761 756 757 762 758 757 760 760 762 766 773 778 775 770 764 758 757 755 750 747 748 752 757 757 755 759 770 784 795 806 813 812 816 819 820 834 839 825 817 816 825 836 824 809 806 802 798 798 799 798 797 798 798 797 796 795 793
787 785 783 780 778 778 777 775 772 774 774 774 774 772 781 798 808 819 806 777 778 778 764 765 764 758 761 765 767 764 764 764 757 760 765 764 768 768 768 773 775 784 793 787 779 773 766 762 757 750 744 745 756 766 766 762 766 778 790 798 814 831 836 836 835 833 836 833 819 813 817 828 831 815 803 801 797 795 795 795 796 796 797 797 796 798 798 797
785 781 779 776 775 773 772 772 772 774 774 773 776 777 791 815 817 804 791 783 782 769 758 760 758 758 763 766 768 762 761 764 758 759 761 762 770 770 767 766 766 780 791 787 784 783 778 767 758 759 755 746 755 771 778 775 775 783 793 798 809 831 846 847 844 840 837 830 817 811 819 829 825 809 800 798 794 792 791 791 793 793 794 793 792 795 797 798
781 778 775 772 770 768 767 769 770 772 773 773 779 787 804 820 810 791 788 784 770 759 756 756 756 759 761 763 763 756 762 766 757 759 763 764 774 776 771 766 763 770 779 783 784 784 792 788 770 765 761 752 754 762 767 770 772 776 778 783 793 805 820 831 833 832 834 832 824 820 824 827 821 809 798 794 792 791 791 791 791 790 791 789 787 791 794 796
778 775 771 767 765 764 764 767 768 770 772 774 784 799 812 815 801 789 787 777 765 762 758 753 755 764 764 760 755 749 758 765 757 760 765 767 774 773 769 766 763 765 774 785 784 778 791 791 767 755 752 751 756 753 751 762 775 773 768 779 788 782 787 806 815 814 822 831 828 825 824 815 809 803 794 793 793 791 792 792 790 791 790 789 788 789 792 794
775 770 767 764 762 762 763 764 766 769 770 776 793 806 806 799 790 785 778 769 767 768 766 763 760 768 772 765 760 753 751 756 758 763 766 765 767 765 762 760 757 759 765 776 781 779 789 787 763 754 754 751 753 751 748 761 774 773 774 781 776 765 772 797 813 811 815 828 828 823 820 813 811 808 798 795 796 793 794 793 790 791 790 791 790 789 793 794
773 768 765 761 758 759 762 762 764 768 770 780 797 802 795 785 776 773 768 764 766 765 771 777 769 769 776 772 766 759 753 756 759 764 768 767 766 761 758 756 752 752 753 761 772 774 782 786 768 761 765 754 746 748 749 752 761 773 780 773 763 764 770 785 811 822 823 830 828 823 823 820 821 818 805 800 801 798 795 793 791 790 789 791 791 790 793 793
774 770 765 758 756 757 760 762 764 767 771 783 795 794 786 779 769 766 765 763 765 765 773 779 770 765 773 776 772 760 757 764 765 765 769 769 767 759 755 756 751 748 745 749 764 767 772 787 778 763 768 761 746 753 764 758 754 764 769 760 764 784 788 786 804 820 825 832 831 825 824 820 817 814 806 803 803 800 797 795 794 792 790 790 791 791 791 791
777 775 767 757 756 757 760 763 764 768 777 789 797 791 781 775 766 762 763 762 764 768 772 772 766 766 768 771 771 763 759 764 765 766 769 769 767 756 750 753 753 751 746 746 763 768 768 787 790 769 763 765 760 769 784 779 763 759 762 762 768 781 788 790 796 802 814 831 834 829 828 820 808 801 799 798 798 798 799 798 796 794 790 789 791 791 789 789
781 781 771 758 757 759 759 762 766 774 783 788 790 785 777 773 765 758 758 760 763 765 766 764 763 768 767 764 766 764 760 761 760 764 765 764 765 759 749 749 752 753 750 749 761 767 768 785 795 779 767 772 779 782 785 784 776 771 776 780 779 778 781 786 791 793 803 823 832 832 832 820 801 793 794 795 796 797 797 798 796 793 790 789 789 789 788 788
785 787 774 760 761 762 760 767 773 778 784 785 783 780 775 771 765 760 755 755 758 756 753 756 759 763 764 763 764 762 760 761 759 760 761 760 764 764 752 744 747 751 753 757 763 767 772 782 791 790 783 786 788 778 770 773 774 776 781 785 783 783 787 798 807 800 797 811 822 827 829 815 795 791 794 796 796 795 794 796 796 793 791 789 788 786 786 786
791 790 773 761 764 764 765 775 777 777 781 781 777 774 771 768 765 762 757 753 755 752 746 750 754 756 759 760 759 759 760 762 761 761 762 759 759 759 749 741 744 747 753 765 767 762 766 777 788 793 791 787 782 772 766 766 765 769 776 779 780 782 788 806 817 808 800 807 811 817 823 811 794 791 794 797 797 794 794 796 795 795 792 790 788 785 785 785
795 790 770 760 764 764 770 781 780 777 779 774 769 767 766 765 765 763 760 758 757 752 749 750 750 751 754 753 755 758 760 762 763 760 760 759 754 750 745 741 743 747 754 766 767 761 766 780 791 795 790 781 774 768 765 763 765 774 778 775 778 781 782 792 800 798 803 809 809 818 824 811 796 793 794 797 798 796 797 797 796 797 794 791 789 786 785 785
797 790 773 764 763 764 774 784 782 781 778 771 770 768 763 762 762 761 761 759 756 752 752 751 747 748 749 748 751 755 757 763 764 757 756 758 754 746 741 738 741 747 754 760 762 762 773 786 793 802 807 801 792 787 781 774 775 782 783 777 777 778 780 786 790 793 805 811 809 818 824 812 799 795 795 798 800 800 800 798 797 797 795 793 790 787 786 785
797 790 777 767 762 764 773 777 776 780 778 774 774 770 766 762 756 754 756 755 750 749 752 750 743 743 745 746 750 750 750 758 763 758 754 756 753 746 742 739 740 745 749 750 750 755 771 783 786 801 818 822 818 811 799 789 785 784 783 780 778 779 781 787 794 800 809 813 809 811 817 814 804 798 799 802 803 804 804 801 799 797 795 794 791 789 788 786
797 793 785 775 767 767 772 771 772 779 779 780 779 771 767 765 755 746 747 749 746 743 745 744 740 743 747 748 754 755 750 751 756 757 756 757 755 749 744 740 740 743 746 746 746 753 770 779 779 788 800 805 805 798 787 785 787 787 786 783 782 782 781 786 797 803 805 810 810 806 810 814 808 800 802 804 805 807 805 803 801 797 795 794 792 791 789 788
801 798 793 790 783 778 777 774 775 780 779 781 782 773 766 765 759 750 745 745 742 739 740 741 739 746 752 751 755 759 754 752 754 756 757 756 753 748 744 744 744 744 744 745 747 755 772 782 780 782 784 783 785 782 777 780 785 786 787 786 784 782 780 786 797 799 799 807 812 806 807 812 807 800 802 805 806 807 805 804 802 798 795 794 793 791 790 789
800 797 792 794 795 792 789 784 781 782 779 778 778 772 768 766 764 760 752 745 741 738 742 746 743 745 749 750 755 760 759 758 759 758 756 756 755 753 751 750 748 744 744 748 748 753 771 781 779 780 781 778 777 777 776 778 781 781 783 784 784 783 783 788 794 793 793 800 803 800 804 808 804 800 803 805 804 806 806 803 800 798 795 794 794 792 791 791
798 798 792 792 795 795 793 788 784 783 781 779 777 772 769 768 765 761 754 751 750 744 743 751 749 742 742 744 751 759 761 763 764 760 755 755 755 756 759 759 752 746 747 753 752 752 766 778 776 777 781 777 775 776 775 777 780 781 781 781 781 784 785 787 792 791 790 795 798 798 804 807 801 798 800 801 801 803 804 801 799 798 796 794 794 794 792 792
801 803 799 797 797 794 790 786 784 785 782 779 778 772 767 767 765 760 754 754 759 753 746 752 753 744 741 741 746 754 754 754 759 756 751 754 756 755 758 760 755 751 751 756 757 755 764 777 776 776 783 783 777 775 776 777 780 782 782 780 780 786 789 790 792 793 792 799 804 804 807 807 800 796 799 800 799 801 804 802 800 799 797 795 796 795 794 794
803 802 800 803 801 793 789 786 785 789 786 780 777 773 769 768 765 762 757 750 753 756 751 753 754 749 744 743 745 747 743 742 747 746 742 747 750 749 752 753 752 755 757 757 760 760 765 776 777 778 791 792 780 778 780 777 779 785 786 782 782 787 791 790 790 789 789 797 807 810 808 803 797 796 800 802 802 804 806 803 801 800 798 797 798 797 796 795
803 801 798 802 801 792 790 789 787 790 787 779 776 774 772 770 762 762 763 753 748 752 750 747 749 751 752 752 749 745 740 736 736 736 734 736 736 738 744 746 746 752 756 757 761 763 766 774 778 782 794 794 784 781 781 782 793 799 789 780 782 785 788 788 787 785 783 791 803 807 801 794 793 798 801 803 806 807 806 803 801 800 799 798 798 797 797 796
Wind_Speed
13 13 12 12 13 13 14 15 16 17 18 18 18 17 16 16 15 14 12 12 12 11 11 10 10 10 11 12 13 16 16 12 6 5 6 6 8 7 6 7 5 5 7 5 8 6 4 5 8 7 5 4 0 2 2 1 1 1 2 2 2 2 2 3 4 3 2 2 4 2 2 4 1 3 2 3 8 11 10 8 8 8 10 15 23 30 29 28
14 14 13 13 13 14 15 15 17 18 18 19 19 18 17 16 15 13 12 12 11 11 11 10 10 10 11 11 13 15 15 12 6 6 9 7 10 9 6 6 6 5 7 7 10 9 5 4 8 6 4 2 1 3 3 2 1 1 2 2 1 3 2 2 4 2 3 3 3 2 3 4 2 1 2 5 8 11 12 9 10 13 12 18 27 30 27 28
15 14 14 13 14 14 15 16 17 18 19 20 20 19 19 17 15 13 12 11 10 10 10 10 10 10 10 11 12 13 12 8 4 5 6 9 11 10 8 8 8 7 7 8 10 12 10 7 7 5 4 3 1 3 3 1 1 1 2 2 1 3 2 3 4 3 5 3 4 4 2 2 3 1 3 6 9 12 12 10 12 14 14 17 21 25 26 26
15 15 14 14 14 15 16 17 18 19 20 20 21 20 19 18 15 13 11 10 9 9 9 9 9 9 9 10 11 10 8 4 2 3 5 9 11 12 11 10 10 8 8 9 9 13 13 8 5 5 4 3 0 1 3 3 2 1 3 2 3 2 1 2 2 3 5 4 5 4 2 2 4 1 3 8 10 7 9 11 14 17 16 18 19 22 25 24
16 15 15 15 15 15 16 17 18 19 20 21 22 21 20 19 16 13 11 10 9 8 9 8 8 8 8 10 10 8 4 2 2 5 4 6 10 12 13 12 12 10 9 10 10 10 11 8 5 5 4 3 2 1 2 5 3 2 2 3 3 1 1 1 1 2 2 3 4 6 4 3 2 1 4 11 10 5 8 11 14 16 15 18 20 20 21 20
17 16 16 16 16 16 17 18 19 20 20 21 22 22 21 19 16 14 12 10 9 8 7 6 6 7 8 9 7 4 1 1 4 6 5 5 8 10 12 13 13 11 10 11 8 5 6 5 3 3 2 2 4 3 2 4 4 1 1 2 2 0 1 3 2 2 3 5 3 4 3 1 3 2 3 9 9 7 11 14 14 14 14 18 19 17 15 14
18 18 17 17 17 18 18 19 20 20 20 21 22 22 21 19 16 15 13 11 9 7 6 5 5 6 8 7 4 2 1 3 5 5 4 4 7 9 11 12 12 11 12 10 6 3 3 2 2 3 3 2 4 4 3 5 4 3 0 1 1 2 2 3 3 4 5 6 2 3 2 1 5 2 1 4 7 9 13 15 14 15 16 17 15 13 13 13
19 19 18 18 18 18 19 20 21 21 21 21 21 21 20 19 16 15 14 11 9 6 4 4 4 6 8 5 1 2 1 4 3 3 3 4 7 8 10 11 12 13 13 10 7 4 1 3 5 3 2 4 5 5 5 5 3 2 1 3 1 3 2 4 4 6 6 4 3 2 2 3 5 3 1 3 9 14 14 15 15 15 15 13 12 11 11 12
19 19 19 19 19 19 20 21 21 21 21 20 20 20 20 18 16 16 13 10 7 5 3 2 3 5 7 4 1 2 2 3 3 2 1 5 7 9 10 10 13 14 11 10 10 6 2 3 5 3 2 3 5 7 7 6 3 4 4 4 1 3 2 4 4 6 5 3 4 3 4 2 1 3 2 2 10 16 15 15 15 14 13 11 10 10 10 10
20 19 19 19 19 20 20 21 21 21 21 20 20 20 20 18 16 15 11 8 6 4 3 2 2 3 4 3 2 1 2 3 4 3 4 6 7 9 10 9 13 15 10 10 12 7 4 5 6 5 2 0 4 6 7 5 2 4 5 4 3 4 2 3 4 5 4 4 7 4 3 5 4 3 3 2 10 15 14 14 13 13 11 10 9 9 10 10
20 20 20 20 20 20 21 21 21 22 21 20 19 19 19 17 15 13 10 8 5 3 2 1 1 1 2 2 3 1 4 6 5 5 6 6 7 9 10 9 12 16 13 8 10 10 10 10 7 3 1 1 3 4 3 2 6 8 7 5 5 4 2 4 4 5 4 5 9 6 3 5 4 3 4 4 10 13 13 13 12 11 9 9 9 8 7 9
21 20 20 20 20 21 21 22 22 22 22 21 20 19 19 16 13 11 8 7 5 2 2 1 1 1 2 2 3 5 5 9 8 6 5 5 6 8 8 9 11 14 14 8 8 10 11 10 5 3 1 2 3 2 2 4 7 6 4 4 2 3 3 4 4 4 4 2 3 4 4 4 3 2 4 2 8 11 12 13 10 9 9 8 8 5 6 11
22 21 20 20 20 21 22 22 23 23 23 23 21 19 19 15 11 9 6 6 4 2 1 1 1 1 2 0 5 6 5 9 9 8 7 4 4 7 7 10 12 12 14 12 10 11 12 12 5 2 1 4 3 2 5 5 4 2 3 4 1 3 3 4 2 3 4 0 3 2 2 3 5 4 5 2 6 11 11 10 8 8 8 7 6 5 7 12
22 21 21 21 21 22 22 23 24 24 24 24 22 21 20 16 11 7 4 4 4 2 1 1 1 1 2 3 7 5 4 6 9 12 11 8 8 10 10 11 14 15 16 15 14 12 12 12 6 1 1 4 4 3 7 4 2 2 2 2 2 2 1 3 2 4 4 3 2 4 2 5 5 6 6 3 4 11 10 8 9 8 6 6 5 7 9 10
24 23 22 21 21 22 23 24 24 25 25 25 24 23 21 17 10 6 2 1 3 2 2 1 1 1 1 6 7 3 5 6 9 13 12 12 13 11 12 15 16 16 14 12 12 12 11 9 5 1 2 2 6 4 4 2 2 1 1 2 2 2 1 2 2 4 2 3 2 3 3 4 5 6 7 4 3 9 8 8 10 8 6 7 6 7 8 8
26 24 23 22 22 22 23 24 25 26 26 26 25 24 23 18 10 5 1 2 0 1 1 2 0 0 1 4 5 3 5 8 10 13 12 15 16 12 12 15 17 16 14 11 10 11 9 5 1 2 1 0 5 5 3 2 2 1 2 2 2 2 1 1 3 3 3 2 2 1 3 2 4 4 6 4 3 8 7 8 10 8 6 7 7 7 6 7
27 26 25 23 22 22 23 24 25 26 26 26 26 25 24 18 7 2 1 3 1 1 2 1 2 1 2 5 5 4 7 10 11 13 14 16 17 13 8 7 10 13 13 10 8 7 4 1 1 1 1 1 3 5 3 1 3 2 1 2 2 3 2 1 4 4 2 1 1 2 2 3 4 4 5 5 3 8 8 8 9 8 7 7 7 7 6 8
27 27 26 25 23 22 23 24 25 26 26 26 25 26 22 12 2 2 5 6 3 2 1 2 2 1 3 5 4 4 8 11 9 10 14 14 13 9 5 3 3 5 5 3 4 3 0 1 0 1 3 1 3 5 4 4 4 4 3 2 2 2 3 3 3 5 4 1 3 3 1 3 5 6 4 5 1 7 7 6 6 6 7 7 8 7 6 8
28 27 27 26 24 23 23 23 24 26 27 25 25 23 14 5 4 5 7 6 3 1 2 2 2 2 3 6 6 5 7 12 8 7 11 11 10 8 5 4 2 3 3 1 2 3 2 1 1 0 4 4 4 5 7 7 7 8 5 4 4 2 2 3 3 4 7 4 3 4 1 1 6 8 4 5 2 5 6 6 5 5 5 6 7 6 7 7
28 28 28 27 25 24 23 23 24 25 26 27 26 18 6 3 4 2 2 3 4 6 7 6 6 4 6 6 3 3 5 9 6 6 11 11 9 5 2 2 1 1 3 4 3 2 4 2 3 5 7 6 6 8 9 8 8 8 5 4 5 4 1 1 4 1 4 4 2 2 3 3 6 8 5 5 4 3 6 8 6 4 3 4 7 7 7 7
29 28 28 28 26 24 23 23 22 23 24 25 22 10 0 1 2 3 3 3 7 10 11 11 10 9 11 10 5 8 4 2 3 4 12 13 7 4 2 1 1 2 3 5 2 0 4 4 8 10 9 7 6 7 10 9 8 7 5 5 3 3 1 3 4 1 2 3 1 2 3 4 5 6 5 4 4 3 3 9 7 6 3 2 5 8 9 7
30 29 28 28 27 24 23 22 21 23 21 19 15 3 4 5 4 8 6 4 8 8 10 11 10 9 14 19 14 10 5 1 4 4 9 11 6 4 3 2 4 4 4 2 1 1 2 5 12 13 9 5 5 7 12 10 7 5 4 5 3 2 2 4 5 2 2 2 2 3 4 3 4 5 5 4 2 2 1 5 6 7 8 5 6 8 9 8
30 30 30 28 27 25 23 22 22 19 15 16 13 7 10 12 11 12 6 1 7 7 7 8 8 6 10 15 11 8 5 3 4 5 9 9 4 4 4 3 5 4 2 3 4 3 3 7 14 14 7 6 7 9 10 6 4 4 4 5 3 4 3 2 3 4 2 2 3 4 2 2 3 3 5 4 2 3 1 2 2 5 8 8 5 5 9 11
31 31 30 29 29 25 22 23 19 12 14 18 16 13 14 13 9 8 3 1 5 6 6 8 7 5 8 9 6 7 3 4 5 5 11 10 3 3 4 4 5 4 4 7 8 7 7 12 11 9 7 9 10 9 7 5 3 4 5 5 5 6 3 3 6 5 3 3 3 5 3 3 2 3 5 2 1 2 3 2 2 3 5 5 4 4 9 12
32 31 30 30 28 26 24 19 9 8 17 18 13 16 18 14 12 8 3 2 3 5 5 6 3 3 7 8 7 6 2 2 4 7 13 12 6 3 2 3 3 5 8 7 7 6 10 14 8 5 8 10 9 9 10 7 4 3 4 6 10 9 6 9 10 5 2 1 2 5 3 3 3 4 6 3 1 3 2 2 3 4 3 4 5 4 7 10
34 31 30 29 28 28 22 8 5 14 17 11 10 19 18 16 19 11 3 3 3 4 2 1 1 3 6 5 5 4 4 2 5 10 12 12 8 5 1 3 0 4 6 4 2 3 6 8 6 5 5 5 4 6 10 8 6 3 5 7 11 10 11 14 12 5 1 1 2 3 4 2 2 4 7 5 3 5 3 3 4 4 4 4 5 5 6 9
34 32 31 28 27 27 16 5 12 15 8 7 15 20 15 16 21 11 3 3 3 2 2 0 1 3 5 5 6 5 2 3 3 6 9 10 7 4 2 4 2 3 3 2 2 2 3 4 3 3 2 4 4 3 7 9 7 3 6 11 12 11 13 14 10 4 2 3 3 2 2 1 2 4 7 6 5 6 6 5 5 5 5 5 4 5 8 10
35 33 30 27 26 24 15 12 14 9 4 11 17 15 15 18 18 6 4 1 2 1 1 2 1 3 3 3 6 4 3 4 4 5 8 10 5 4 2 5 3 5 4 2 3 5 1 3 4 1 0 1 2 4 5 9 5 5 11 15 11 11 13 11 7 3 3 4 3 3 2 1 3 4 4 7 7 8 9 9 7 7 7 6 5 5 8 11
36 34 30 28 25 21 14 12 11 7 7 13 14 14 17 17 10 4 4 1 1 1 1 1 1 2 1 2 3 3 3 3 3 4 3 5 4 3 3 6 4 5 5 4 5 6 2 2 1 1 1 3 4 4 2 7 3 4 12 12 8 7 7 5 4 3 3 2 1 6 5 2 3 3 3 6 7 9 9 8 8 8 5 2 3 3 6 10
37 34 31 29 24 16 11 13 16 12 8 13 14 16 16 9 4 5 2 1 3 2 1 1 0 2 4 3 3 3 5 4 3 1 1 1 2 1 2 3 1 2 4 0 3 6 5 4 2 2 4 4 2 1 2 4 6 10 11 8 7 5 3 3 2 3 3 2 2 7 9 5 1 3 4 4 4 6 8 7 8 8 3 0 8 8 6 9
38 34 31 29 23 13 7 11 15 8 2 13 16 14 9 4 4 4 1 3 3 2 1 1 2 2 6 6 4 2 4 4 3 3 3 0 1 1 1 2 3 3 4 5 5 6 5 4 2 2 3 3 3 2 4 3 8 11 7 6 5 3 3 3 3 3 2 3 4 5 8 5 1 3 3 4 3 3 6 6 7 7 6 6 10 5 2 6
39 36 32 26 20 14 10 10 12 7 6 14 14 7 5 3 1 1 3 3 2 3 3 4 5 4 6 7 5 4 4 4 4 6 6 3 2 3 3 3 2 3 3 3 3 5 5 4 3 2 2 3 5 1 4 4 6 6 6 6 5 2 1 1 2 1 1 3 3 4 7 4 3 4 3 5 5 4 6 5 4 4 6 5 4 3 4 5
40 38 32 23 18 18 17 14 12 10 9 10 7 4 5 3 1 4 3 3 2 4 2 3 6 6 6 6 5 6 6 4 5 6 5 5 4 4 4 5 6 4 2 4 2 3 4 4 0 1 3 2 6 3 1 1 3 5 6 6 4 3 2 3 2 1 2 3 2 2 5 2 3 3 3 4 4 3 4 4 4 3 6 6 4 4 2 5
42 38 32 25 20 19 17 13 10 8 4 3 4 4 4 2 4 4 2 4 5 4 2 2 5 5 5 5 5 5 4 3 6 6 4 3 3 3 3 5 6 5 2 1 1 0 3 4 1 3 2 2 3 5 6 5 3 5 6 5 4 4 4 4 3 2 2 1 1 1 2 3 2 2 4 3 3 1 1 2 4 3 4 5 5 6 4 3
41 37 31 23 18 14 9 8 9 7 4 2 6 4 3 3 4 2 2 4 4 3 3 3 2 3 3 3 4 4 4 3 5 5 4 4 4 4 4 5 6 6 2 1 1 1 4 2 5 3 1 4 4 4 5 5 1 3 2 5 2 5 5 3 3 4 4 2 0 1 2 2 2 1 2 2 3 2 1 1 4 4 3 3 4 6 5 3
41 37 26 14 14 11 4 4 10 11 7 5 5 2 4 4 4 2 3 3 4 6 7 7 2 1 3 3 3 3 2 2 4 3 3 3 2 3 4 3 5 6 4 3 1 2 4 3 6 3 4 2 5 4 4 4 1 2 1 1 4 5 6 4 1 1 4 3 1 1 1 2 1 1 3 3 3 2 1 1 2 2 3 3 3 4 3 4
40 32 18 15 15 9 4 4 14 15 6 6 4 4 4 4 5 4 3 3 6 7 4 3 1 0 2 2 3 5 2 1 2 3 2 1 1 3 2 2 2 5 6 4 1 2 3 2 6 3 3 3 4 2 4 3 3 1 2 4 4 1 4 4 2 1 2 2 2 1 1 2 1 1 3 2 2 2 1 1 0 1 3 5 4 3 4 5
32 22 13 13 7 5 5 7 18 14 5 5 2 4 3 4 4 3 4 6 7 7 3 1 2 1 1 2 4 6 3 2 3 4 1 0 2 3 2 2 1 0 4 6 3 1 3 1 6 4 3 4 4 6 5 4 3 1 3 3 1 1 1 1 2 2 1 1 2 2 1 2 2 3 4 4 5 5 2 1 1 1 1 4 4 5 7 6
20 10 7 9 3 8 9 13 17 7 5 3 3 3 3 5 5 3 5 6 5 6 4 3 2 1 3 2 3 4 1 2 5 3 1 1 2 3 2 2 1 4 4 7 4 0 2 3 3 6 4 3 4 6 4 6 6 3 2 3 3 2 2 1 1 2 3 2 1 1 1 2 3 3 4 6 6 6 4 2 1 2 2 4 4 6 7 7
10 2 4 10 3 12 15 15 10 5 3 4 3 3 3 5 6 5 6 5 4 5 5 3 2 1 3 2 1 2 1 3 5 2 2 3 2 2 2 2 3 4 7 9 6 2 3 4 1 6 6 4 3 2 2 4 5 3 4 4 3 2 1 1 1 1 3 3 1 1 1 4 4 2 2 4 4 5 5 3 2 3 4 4 5 6 7 7
6 1 3 9 9 15 17 10 3 2 3 3 2 3 4 4 6 9 9 8 6 6 6 4 3 3 3 2 2 1 2 2 2 1 2 3 3 1 3 2 4 5 6 8 6 2 1 3 1 2 4 3 1 3 3 5 3 2 3 2 2 2 2 3 2 3 1 3 2 2 1 5 4 1 3 3 4 4 4 4 2 1 2 3 3 3 6 7
2 2 8 8 7 3 6 4 2 2 3 3 3 4 4 4 7 8 9 9 8 6 5 4 3 3 3 2 2 1 1 2 2 2 1 2 4 2 2 1 5 7 6 4 1 1 2 3 3 1 1 1 4 4 3 5 4 5 3 0 1 3 4 4 1 3 2 2 1 2 1 4 4 2 4 4 3 3 1 2 2 2 1 2 2 0 3 6
1 5 13 11 8 3 1 1 2 1 2 4 4 5 5 5 6 6 7 8 8 5 2 2 2 2 2 2 1 1 2 2 1 1 1 1 3 1 2 5 8 7 6 2 1 1 2 3 3 1 4 4 5 5 5 5 5 5 2 1 2 2 3 5 4 2 1 1 1 2 1 4 4 3 5 4 3 3 2 3 2 2 2 2 2 1 3 5
2 5 8 11 11 3 2 2 3 3 4 4 4 7 7 6 7 8 9 8 6 3 2 3 2 2 3 2 2 3 2 2 1 0 2 1 1 2 3 8 8 4 3 3 2 2 1 1 3 3 3 6 7 7 6 6 4 2 2 3 0 3 5 3 2 3 2 1 2 3 2 4 3 3 4 4 4 4 4 3 2 1 1 2 2 2 3 5
4 2 5 9 12 4 3 3 2 3 4 4 5 7 6 6 7 10 11 10 8 5 3 4 3 3 3 1 1 4 2 5 1 2 2 1 2 2 1 7 7 4 4 6 7 5 3 3 4 4 3 0 2 2 3 2 2 1 2 3 2 3 5 3 2 3 2 1 2 4 3 3 2 3 4 4 3 4 4 3 2 2 1 2 2 2 3 4
3 2 3 6 7 4 1 2 3 3 4 5 5 6 6 6 5 6 8 8 8 8 6 4 3 1 1 1 2 2 2 2 1 1 1 0 1 1 4 6 6 6 7 9 7 5 3 2 3 6 6 5 6 6 5 3 1 3 3 3 2 2 5 5 4 2 3 2 0 3 4 2 2 2 2 4 4 4 4 4 4 3 1 2 1 2 3 3
1 2 3 4 4 4 4 5 6 5 6 5 4 5 7 6 5 5 5 4 5 7 6 3 2 2 0 1 0 1 2 3 3 1 1 1 1 3 4 4 5 7 10 9 5 5 5 1 1 6 7 6 8 7 6 3 3 2 1 1 2 2 6 6 3 2 4 3 2 5 4 4 4 4 3 6 5 5 4 4 4 4 2 2 1 2 4 5
1 1 3 4 2 2 3 5 7 8 10 7 3 5 7 6 4 4 4 6 8 5 3 2 3 5 5 3 1 1 2 5 5 2 1 1 1 2 1 3 2 6 8 5 3 5 6 2 4 5 4 6 6 5 3 3 1 1 3 2 2 4 6 6 2 3 6 4 4 5 6 5 5 4 3 7 6 5 4 3 3 3 2 3 2 2 5 6
2 2 3 4 2 3 4 7 8 8 9 8 4 4 5 7 6 4 3 5 8 6 2 2 5 7 7 5 5 2 1 1 2 4 3 2 1 1 2 2 2 3 3 3 1 2 5 2 5 4 3 4 4 2 3 4 2 2 1 3 3 5 6 6 3 2 5 4 3 5 7 4 4 5 3 7 7 4 3 2 3 4 3 4 4 3 4 5
2 2 3 3 3 4 4 5 6 6 6 5 4 4 5 7 7 5 3 2 5 7 5 4 5 6 7 6 4 3 5 7 5 5 3 2 2 1 2 2 2 1 3 2 1 2 3 2 3 3 3 3 3 2 3 3 3 1 2 1 5 6 6 6 4 4 6 4 3 6 5 2 4 4 1 6 5 4 3 3 4 4 3 4 5 4 5 7
5 5 4 2 3 4 3 3 3 4 5 3 2 4 6 8 9 8 6 3 3 5 5 4 7 7 3 2 2 5 7 7 8 8 6 5 2 3 2 2 4 3 1 1 1 2 3 1 1 4 3 3 3 3 3 1 3 1 3 2 5 5 4 3 2 3 4 5 5 5 2 3 4 2 2 4 4 4 4 3 3 3 3 5 6 5 5 6
8 7 5 1 2 3 2 3 3 3 3 3 6 8 7 10 12 9 5 4 5 9 8 3 6 5 5 6 3 4 9 7 9 10 8 6 5 6 5 3 5 5 3 2 3 2 3 3 1 3 2 4 3 3 3 4 6 3 4 5 5 4 4 3 1 3 4 6 6 4 4 4 4 4 3 4 4 4 3 3 2 3 4 5 5 5 5 5
Wind_Direction
8 6 2 357 352 348 344 342 341 340 341 341 341 342 342 340 336 335 332 329 328 326 329 333 337 343 345 347 341 337 335 331 318 269 251 247 205 174 159 177 187 187 177 194 205 186 188 211 230 230 167 164 146 119 157 146 182 95 84 102 102 134 173 182 165 191 219 194 191 202 147 124 251 300 349 44 104 134 131 120 121 105 105 114 129 141 143 143
7 6 2 357 352 347 343 341 340 340 341 340 341 342 340 338 333 329 325 320 318 317 321 323 329 336 340 344 340 336 334 329 315 267 243 214 184 184 198 202 207 210 193 198 206 196 182 193 215 211 164 188 224 147 169 198 188 114 100 91 146 174 187 170 142 187 220 184 166 155 131 127 186 259 45 72 102 122 117 120 119 112 114 114 128 139 141 143
6 5 0 356 351 347 344 341 341 341 342 342 342 342 341 340 335 329 322 316 311 309 311 314 323 332 337 340 338 336 334 333 307 270 229 193 193 202 209 210 215 227 221 215 210 204 207 213 214 206 178 199 222 174 183 209 236 149 114 76 230 215 187 147 128 197 235 210 153 152 135 130 211 235 64 100 107 113 122 135 129 128 132 125 133 140 143 147
6 3 358 355 350 347 344 343 343 342 343 343 343 344 343 343 341 335 326 320 311 304 304 308 320 329 334 335 333 333 333 347 284 238 176 185 202 208 212 214 215 229 233 225 216 210 222 239 257 259 208 186 232 190 181 188 190 135 122 147 241 243 148 140 133 216 238 209 171 150 126 185 225 240 101 117 103 106 132 141 138 141 142 134 139 146 151 155
5 1 357 353 349 347 345 344 343 343 343 345 346 347 346 347 347 344 335 328 317 305 301 305 319 324 327 329 327 326 340 49 243 224 194 202 208 209 214 214 216 228 224 217 220 219 235 242 236 249 211 155 148 166 202 195 159 92 152 169 222 298 43 255 187 201 203 173 160 142 154 205 204 61 137 133 127 152 147 140 141 142 143 139 144 153 157 159
4 0 357 351 348 346 344 344 342 343 345 346 348 349 349 350 351 351 344 335 326 312 302 307 319 318 323 328 322 322 36 127 251 231 235 234 217 216 215 216 218 218 207 209 220 226 250 238 198 227 206 136 178 181 187 187 144 120 217 146 193 215 10 304 349 51 86 82 92 154 208 240 104 76 166 143 147 168 146 139 140 139 141 142 147 156 159 160
2 0 357 351 348 346 343 342 340 342 345 348 350 350 351 351 352 352 344 338 332 321 310 308 312 315 327 331 314 345 112 247 259 232 249 235 214 217 212 214 206 196 195 199 210 221 265 262 271 249 199 194 195 182 166 165 140 118 330 308 213 131 47 339 28 39 64 75 6 247 246 105 112 120 162 125 141 148 138 136 136 138 143 147 154 161 160 163
2 359 355 351 348 345 342 340 338 340 343 347 349 351 353 352 351 347 342 340 338 333 314 304 314 322 336 340 315 6 314 249 238 200 244 212 198 196 190 192 184 184 190 191 197 202 263 267 251 234 207 230 183 156 155 143 143 143 163 245 217 95 32 353 50 41 40 53 321 309 93 131 143 140 81 77 128 135 134 137 139 142 150 159 166 164 158 163
2 359 355 351 347 344 341 338 337 336 339 346 349 352 354 352 350 347 345 345 346 344 321 323 333 331 344 346 65 25 290 237 175 155 201 185 181 174 174 178 177 182 189 202 214 215 237 241 240 238 287 249 152 143 155 148 193 195 169 192 141 77 16 352 40 37 29 13 351 29 35 356 113 114 85 97 134 136 137 143 145 150 159 167 168 160 155 162
2 359 355 350 345 342 339 337 335 334 337 344 349 352 353 352 350 349 353 354 357 354 348 16 342 343 1 359 77 51 257 200 153 117 118 163 173 167 173 180 179 184 192 214 222 219 217 235 274 285 284 224 132 140 163 171 174 143 132 133 79 73 30 6 29 19 22 16 12 37 15 326 332 83 125 160 144 142 142 147 150 154 163 164 159 158 160 159
0 357 353 349 344 340 337 336 334 334 336 341 347 350 351 352 350 354 0 357 2 9 14 38 339 9 56 63 102 225 227 190 170 125 118 150 167 170 175 182 184 190 200 222 234 231 235 252 283 299 239 119 112 116 154 126 101 119 120 94 55 67 25 12 36 11 27 24 3 9 9 323 335 100 167 186 156 149 143 148 154 157 158 153 154 158 154 142
359 355 352 348 343 339 336 334 333 334 335 339 344 347 349 349 349 355 0 358 5 17 22 60 24 69 76 79 185 233 212 194 183 142 136 133 151 173 178 190 195 199 207 218 249 256 264 281 330 32 328 115 115 106 116 77 97 125 110 95 42 54 12 0 46 22 47 69 334 8 20 332 332 179 216 215 154 149 142 148 152 152 148 145 152 145 128 133
357 354 350 346 342 339 335 333 333 333 334 335 339 345 346 343 342 348 353 1 2 346 18 72 49 28 55 128 243 254 222 204 189 168 176 155 162 194 201 211 217 227 228 227 255 285 293 297 339 34 281 104 131 145 109 81 91 110 58 94 70 39 349 335 63 66 62 131 222 120 73 268 284 268 263 327 142 146 141 146 139 140 147 146 148 129 128 140
358 353 348 345 341 338 335 333 333 332 331 332 336 343 344 339 337 343 348 360 3 350 354 58 106 106 98 252 273 286 241 207 183 187 194 195 211 221 225 229 235 242 242 243 261 286 294 297 323 348 249 117 148 122 99 79 62 91 48 48 59 88 280 313 52 88 67 306 259 109 133 230 266 290 289 326 136 148 144 141 136 142 152 143 137 134 140 147
1 355 349 345 340 338 335 333 333 331 330 331 335 341 342 337 331 336 334 328 10 358 321 354 191 142 11 285 297 301 228 208 191 205 212 211 213 221 232 232 234 236 234 246 264 277 292 309 342 37 292 110 133 118 97 75 40 104 150 320 337 126 194 312 42 79 103 269 307 113 166 241 267 281 289 316 129 149 148 142 141 146 152 139 134 142 145 146
4 359 352 346 340 338 335 333 333 330 329 331 335 340 338 332 329 345 332 189 30 334 28 51 264 263 15 287 311 315 222 213 210 213 216 219 218 226 243 233 227 228 224 231 248 263 282 315 344 185 248 124 134 125 82 45 345 255 167 225 261 145 160 332 86 95 151 178 306 241 170 223 269 278 297 307 143 145 146 147 145 147 150 135 137 152 143 140
3 0 355 349 342 338 334 333 331 328 328 331 335 337 333 325 324 359 142 156 139 191 160 42 341 342 279 279 304 294 219 211 220 220 218 224 224 233 250 223 214 219 221 229 237 250 276 327 263 242 279 177 144 117 92 318 268 266 183 210 220 148 149 158 125 137 147 130 198 229 193 211 257 300 315 318 136 146 151 154 153 149 149 137 144 158 141 143
360 358 356 352 345 339 335 332 330 328 329 331 335 335 330 328 351 114 131 133 121 104 158 286 349 36 274 267 256 244 212 202 213 219 216 219 224 239 259 236 206 190 202 243 246 236 280 322 244 341 323 265 153 122 152 216 202 199 203 179 183 134 154 178 148 148 147 127 186 184 256 255 296 314 313 329 75 155 149 136 142 146 150 151 152 157 144 149
356 356 354 352 348 342 336 332 330 329 329 331 335 336 337 6 78 115 125 126 121 344 279 234 170 159 264 255 242 244 196 177 179 198 198 202 216 234 248 251 248 134 132 95 255 226 166 294 14 116 263 233 185 170 188 202 183 184 187 156 153 136 193 183 117 143 150 139 179 166 105 332 298 302 315 337 339 145 129 107 117 146 163 166 154 153 152 149
355 353 351 351 348 343 337 333 330 329 330 331 335 343 356 27 36 72 130 161 205 233 248 224 189 216 276 278 232 174 169 168 177 194 192 194 194 203 243 265 309 96 145 165 221 236 150 176 243 222 227 208 202 204 193 185 174 170 153 137 140 128 234 46 79 95 132 123 187 137 106 182 249 279 309 332 357 97 135 133 141 182 196 182 156 151 155 148
353 351 349 348 346 343 338 332 330 329 329 330 337 354 63 287 352 312 295 255 237 221 231 232 210 219 253 266 212 155 153 193 226 218 205 201 159 142 250 211 147 278 231 186 190 5 125 181 234 233 227 214 222 206 176 173 169 153 134 129 104 107 146 49 82 42 47 106 181 114 130 193 233 264 291 325 26 51 145 141 161 200 174 199 184 158 158 151
352 350 348 346 344 342 337 331 329 327 329 334 342 2 237 278 310 305 299 294 283 240 226 239 227 227 245 259 248 182 144 218 268 278 215 197 142 146 227 170 168 233 248 177 84 21 157 225 240 237 222 203 223 188 166 172 162 129 123 128 108 148 127 65 99 122 48 108 168 156 165 198 238 255 277 295 80 69 339 131 167 197 165 183 211 166 158 154
351 348 346 344 341 339 336 330 327 325 335 341 329 297 295 312 318 311 299 266 295 268 234 236 229 230 238 255 248 172 140 188 222 258 204 178 156 176 175 179 207 243 270 178 175 184 200 238 240 234 210 165 200 202 167 156 146 137 144 133 143 185 158 79 131 132 71 89 137 141 147 261 278 289 286 266 169 137 190 146 178 203 173 174 198 178 164 156
350 347 345 342 338 337 335 328 324 328 342 333 314 316 337 343 333 320 321 202 283 274 249 228 221 223 216 221 196 153 169 197 183 216 195 173 161 172 168 188 210 255 253 208 192 188 224 244 240 231 216 185 197 205 164 142 171 183 166 141 159 181 161 113 138 140 90 80 120 118 80 307 267 269 279 273 136 163 162 159 258 229 184 157 154 185 175 160
350 346 343 340 337 334 332 326 318 334 335 322 309 334 350 352 346 346 28 17 288 284 268 233 221 200 187 183 176 162 156 218 199 189 185 183 174 147 202 210 187 241 254 230 196 193 237 248 240 230 231 213 200 186 177 171 157 185 208 173 162 159 126 117 133 137 74 76 199 142 122 278 238 212 254 275 300 262 171 155 249 244 200 163 149 174 186 171
350 346 342 340 336 332 333 327 313 331 328 314 323 340 343 344 345 349 59 39 305 277 264 200 178 179 178 167 165 121 62 297 224 180 179 196 193 152 221 269 229 246 261 264 211 198 245 250 222 204 198 190 172 162 185 181 138 181 220 160 142 134 123 133 147 145 109 181 206 140 133 246 261 212 232 240 242 258 248 202 233 241 213 192 169 166 186 183
350 347 342 338 336 336 336 302 312 325 319 316 336 342 345 346 343 343 63 36 308 255 174 273 336 173 185 183 154 108 66 254 211 190 195 197 189 133 179 259 301 266 275 6 336 263 256 299 286 212 127 86 89 131 191 167 137 212 185 139 133 134 137 152 160 147 160 137 91 94 123 128 284 236 213 211 229 253 256 242 235 236 228 210 193 178 183 186
350 347 342 336 335 334 322 297 308 314 301 330 339 343 342 339 338 358 86 40 276 183 167 253 255 181 187 167 148 138 208 194 152 232 220 190 174 98 166 238 238 262 275 103 269 275 271 336 320 261 105 87 154 217 191 139 132 209 162 140 140 147 149 158 154 132 150 114 106 209 175 124 270 264 195 183 212 237 239 238 234 230 229 217 203 191 189 187
349 347 341 335 332 328 316 298 287 273 311 342 347 338 332 334 347 64 84 49 189 197 233 156 160 209 163 103 168 185 191 173 172 239 220 180 197 118 175 227 218 266 269 157 208 263 249 222 247 79 207 217 216 246 140 117 134 162 134 122 119 130 133 131 118 113 120 88 179 201 180 163 262 267 175 169 204 225 225 230 234 229 225 255 284 243 197 189
346 346 340 333 328 324 313 292 279 271 318 353 346 331 331 341 35 71 41 253 201 230 221 96 281 190 137 135 229 210 175 193 214 227 75 173 240 120 168 219 139 313 298 314 242 257 259 248 228 175 199 201 181 41 65 129 131 109 105 98 87 80 61 61 54 71 77 355 267 195 182 168 297 265 195 180 209 218 212 214 225 220 163 283 268 257 211 191
343 343 338 329 321 311 287 288 290 268 332 350 338 334 347 17 75 87 193 246 246 233 148 215 248 173 156 172 217 211 173 204 195 159 201 229 36 2 340 346 23 25 348 335 307 289 303 298 260 229 201 139 85 23 0 65 105 104 113 118 94 54 23 27 354 27 80 270 268 192 173 159 230 259 228 221 233 210 207 208 213 203 157 195 239 265 275 218
340 340 335 324 311 290 260 275 294 266 281 328 337 357 41 47 30 171 229 295 289 198 185 209 208 200 191 188 214 213 169 203 195 171 191 178 155 204 204 195 156 47 337 289 289 312 311 265 229 259 262 105 96 5 342 30 82 102 124 126 105 71 5 339 303 297 185 243 246 163 156 166 237 241 241 234 225 210 203 194 201 180 136 176 232 42 3 295
337 336 332 321 304 288 277 281 285 269 283 322 352 42 73 78 257 228 236 297 258 215 210 190 188 194 187 182 228 220 180 201 200 185 197 175 182 225 234 215 173 130 217 234 255 321 326 301 264 74 309 58 105 137 200 183 142 136 143 148 137 125 164 240 243 247 250 249 261 140 153 195 265 246 228 231 241 232 191 176 192 169 132 167 192 131 110 308
335 334 331 319 304 293 283 274 265 251 262 344 45 61 79 129 242 249 251 257 249 241 244 193 186 194 194 194 219 195 171 223 196 182 200 163 176 242 257 241 198 157 161 233 276 356 28 335 212 160 223 174 143 170 168 156 156 179 177 156 153 155 167 211 205 179 205 228 324 354 185 190 220 245 214 213 269 290 173 157 152 146 152 175 171 146 165 247
335 332 328 316 303 300 287 252 235 207 178 83 60 82 149 214 244 257 252 261 284 304 320 331 162 184 249 265 241 181 144 211 196 178 202 177 178 212 210 223 201 169 132 113 260 4 44 317 252 249 215 145 184 214 149 112 79 248 165 105 171 201 164 165 183 164 146 119 211 225 234 200 163 253 243 225 252 241 274 291 125 136 165 165 169 175 180 182
336 333 330 308 291 297 297 214 193 176 154 94 73 148 206 221 230 224 231 258 303 319 331 341 17 116 293 306 289 239 143 164 182 170 228 202 189 232 206 194 180 169 156 132 151 25 39 305 279 334 35 134 208 211 121 110 184 267 55 132 232 196 137 120 128 118 103 106 234 221 287 302 89 339 274 244 228 218 300 305 124 142 155 155 206 199 156 121
336 334 323 293 289 276 257 183 169 167 134 89 122 212 226 229 220 224 277 320 312 308 333 335 320 124 253 297 292 242 174 92 181 177 248 257 279 278 213 135 152 180 177 136 115 165 113 312 298 27 67 257 241 119 72 82 131 116 259 239 251 93 95 101 107 38 62 118 263 275 207 240 142 196 248 228 197 196 266 271 244 305 173 180 206 162 117 127
332 327 304 296 303 195 207 170 158 155 95 87 170 233 230 243 226 224 300 319 307 300 320 259 235 173 224 300 287 249 162 104 210 193 207 247 223 241 169 124 359 162 146 113 85 219 114 71 302 346 31 297 327 56 38 352 29 85 239 239 48 53 340 21 126 159 128 140 283 297 227 218 196 193 199 197 185 168 178 251 31 15 146 160 164 140 139 154
334 324 304 324 30 157 174 160 152 123 60 127 211 241 222 255 260 253 280 295 293 285 280 236 200 27 341 310 283 280 114 163 213 192 135 173 215 243 167 127 24 17 61 90 96 280 90 105 283 318 349 335 2 42 24 325 336 5 355 8 40 150 181 163 159 156 139 159 245 297 314 255 229 209 190 189 180 151 147 152 124 140 141 136 155 162 160 163
347 318 307 344 35 163 158 145 136 75 81 185 209 230 258 281 280 280 277 281 289 271 255 221 159 3 298 297 324 303 262 210 216 187 157 165 151 310 302 146 128 76 59 69 79 57 59 83 286 307 338 28 33 26 48 339 327 4 34 26 24 5 35 95 54 68 119 139 176 132 297 266 249 208 168 162 146 137 146 151 162 178 166 164 182 181 171 165
340 317 294 7 67 149 149 130 118 97 148 235 230 230 271 283 281 291 287 283 281 253 236 204 179 197 220 274 323 271 259 272 237 166 170 168 138 159 262 215 144 112 75 61 58 49 71 84 77 328 351 35 289 277 60 54 24 81 94 65 52 49 66 71 6 316 89 114 155 151 200 266 265 106 99 112 121 142 158 157 167 176 162 171 197 191 166 160
349 328 277 331 29 138 136 113 237 166 154 237 229 235 266 264 271 289 294 294 289 262 238 198 191 193 188 227 261 262 326 354 8 20 346 167 139 149 247 155 111 106 93 75 76 156 130 96 80 43 311 263 259 284 29 65 82 96 95 120 102 87 101 110 155 279 6 58 133 119 127 266 281 63 85 90 109 133 145 150 138 82 45 110 116 160 137 135
40 300 286 312 351 331 7 54 278 268 218 241 240 247 251 249 265 275 277 280 280 275 267 223 215 196 190 204 211 338 23 45 33 48 23 44 88 170 204 122 103 97 92 76 297 81 79 74 64 341 303 306 308 325 3 34 62 67 15 329 109 95 120 140 162 170 76 30 60 66 350 269 291 32 84 95 99 100 58 23 49 55 26 57 88 97 109 116
300 276 281 326 352 1 188 225 249 239 252 262 256 251 245 244 254 256 258 259 258 271 283 259 245 202 209 183 168 218 151 110 308 4 106 76 85 227 167 113 103 99 123 167 166 115 95 100 83 50 359 345 343 349 351 354 24 55 292 297 47 112 107 103 62 68 69 271 139 120 243 267 300 19 68 85 88 86 64 32 19 25 67 77 66 86 117 125
311 261 248 314 340 12 163 210 237 247 276 291 273 263 258 255 244 239 247 251 245 243 241 253 242 191 210 157 174 255 166 128 235 319 41 65 53 346 46 122 127 133 144 161 149 123 133 148 115 108 114 50 299 297 289 290 328 317 283 313 339 102 111 111 65 71 94 245 139 141 207 260 311 12 44 53 58 65 55 33 357 335 104 113 66 74 120 142
347 332 274 312 340 15 24 329 8 358 323 324 301 277 263 265 264 249 248 247 240 231 218 228 226 139 3 46 83 292 280 126 135 50 31 19 82 241 212 159 133 125 137 152 146 107 86 104 116 136 154 180 194 217 236 189 138 303 309 340 352 100 110 105 90 109 168 163 176 204 184 164 241 254 83 59 45 56 51 26 4 344 60 96 52 58 103 133
29 328 334 344 329 347 2 358 14 4 325 324 315 285 279 276 287 297 284 279 265 239 206 201 209 123 79 281 105 267 291 353 20 79 171 228 244 233 204 121 102 134 146 151 143 100 85 74 176 153 171 200 195 215 244 190 166 236 239 2 334 60 94 97 94 177 152 117 280 240 168 144 219 227 107 75 59 66 63 28 351 333 27 101 81 67 92 102
308 291 358 13 321 328 356 330 331 328 315 317 304 280 293 294 299 318 306 317 321 286 208 196 219 189 184 195 181 246 337 7 357 310 231 182 233 284 28 63 131 174 154 138 136 110 105 177 207 168 190 224 204 203 209 152 168 207 134 107 9 51 89 97 104 176 148 146 233 205 148 156 223 235 96 81 74 76 65 26 333 328 31 112 117 82 95 101
330 306 345 12 337 283 287 290 300 308 309 314 301 278 305 307 303 303 288 320 334 320 279 261 245 222 207 179 143 145 232 26 315 281 239 195 201 106 90 83 249 228 113 107 185 105 100 192 216 167 175 225 223 202 148 114 54 3 87 98 89 108 117 104 94 136 120 124 186 145 127 154 234 242 157 110 97 97 83 37 18 2 30 101 105 87 90 88
348 306 334 353 309 281 271 280 300 309 306 304 278 270 300 308 307 315 316 313 324 321 328 342 312 270 229 200 164 192 210 183 195 246 220 124 13 300 156 170 211 351 42 82 276 27 86 198 226 129 124 258 267 220 174 143 125 167 269 104 97 105 113 108 113 113 91 90 114 101 104 167 255 269 133 98 95 107 109 75 46 15 15 83 85 71 73 70
336 313 327 324 277 285 278 284 315 318 299 287 284 301 317 322 326 334 326 291 293 321 332 8 356 335 294 254 208 238 238 192 187 221 201 138 137 193 183 161 143 109 34 96 80 45 87 128 353 74 84 271 250 171 177 125 82 52 276 205 122 116 135 143 167 166 141 141 123 92 100 221 240 263 48 73 94 114 116 105 72 45 49 76 78 69 74 84
349 331 332 326 250 284 305 306 314 302 278 302 330 328 328 327 330 341 331 313 351 339 318 356 33 8 346 356 357 266 271 246 201 202 190 146 135 146 151 168 148 137 156 129 92 97 117 110 100 95 101 279 270 137 119 52 41 356 263 199 149 129 133 118 233 222 165 138 139 156 207 215 197 183 155 121 130 132 129 135 115 96 92 92 98 92 88 94